Location: Hiekkapohja
(62.3333°N, 25.7833°E)
Time: 20:20:17
(UTC+00:00)

SL-4 R/B - Pass Details

Date: 07 August 2020
Orbit: 428 x 665 km, 51.6° (Epoch: 21 September)

Event Time Altitude Azimuth Distance (km) Brightness Sun altitude
Exits shadow 00:22:13 11° 202° (SSW) 1,502 3.6 -7.9°
Maximum altitude 00:22:17 11° 201° (SSW) 1,501 3.6 -7.9°
Drops below altitude 10° 00:23:08 10° 187° (S) 1,539 3.7 -7.8°
Sets 00:26:41 0° 147° (SSE) 2,390 5.0 -7.6°
